Regional Weather Roundup
Issued by NWS

Home | Current Version | Previous Version | Text Only | Print | Product List | Glossary On
Versions: 1 2 3 4 5 6 7 8 9 10 11 12 13 14 15 16 17 18 19 20 21 22 23 24 25 26 27 28 29 30 31 32 33 34 35 36 37 38 39 40 41 42 43 44 45 46 47 48 49 50
785
ASCA42 TJSJ 051710
RWRPR
PUERTO RICO/U.S. VIRGIN ISLANDS HOURLY WEATHER ROUNDUP
NATIONAL WEATHER SERVICE SAN JUAN PR
100 PM AST MON DEC 05 2016

PRZ001>002-007>008-010-051800-
PUERTO RICO

CITY           SKY/WX    TMP DP  RH WIND       PRES   REMARKS
SAN JUAN LMM   MOSUNNY   82  75  78 NE22      29.98F
AGUADILLA      MOSUNNY   79  75  89 E13       30.00F
CEIBA          CLOUDY    81  75  83 VRB7      30.00F
$$

VIZ001>002-051800-
U.S. VIRGIN ISLANDS

CITY           SKY/WX    TMP DP  RH WIND       PRES   REMARKS
CHARLOTTE AMA  PTSUNNY   82  75  78 E10       29.97F
CHRISTIANSTED  MOSUNNY   86  70  58 E13       29.98F HX  90
$$

HOURLY WEATHER ROUNDUP FOR THE NEWS MEDIA

CITY           SKY/WX    TMP DP  RH WIND       PRES   REMARKS
ORLANDO        MOSUNNY   83  70  64 S16       29.98F
NEW YORK       MOSUNNY   48  39  71 W15G22    29.97F
NEWARK         MOSUNNY   46  39  76 W15       29.97F
CHICAGO        CLOUDY    32  31  96 S10       30.03S FOG     WCI  24
HARTFORD       LGT RAIN  44  41  89 SE8       29.93F FOG
BOSTON         LGT RAIN  37  36  96 SE8       29.96F WCI  31
DALLAS         CLOUDY    50  44  80 E3        29.90R
PHILADELPHIA   MOSUNNY   46  40  79 W8        30.00F
LOS ANGELES    PTSUNNY   56  53  90 E6        29.97S FOG
WASHINGTON DC  MOSUNNY   51  41  68 N8        30.02F



USA.gov is the U.S. government's official web portal to all federal, state and local government web resources and services.